Погода в Рыбинске

Погода в Рыбинске : погода сейчас, прогноз погоды и архив. Всё, что Вы хотите узнать о погоде в Рыбинске!

Хотите узнать прогноз погоды в Рыбинске? Тогда Вам сюда: Погода в Рыбинске

Поиск расширенной информации на нашем сайте:

Другие новости

Новости СМИ2

Главная страница сайта

Новости сайта

03.07.2017

Напоминаем, что на нашем специализированном сайте Метеоцентр.Азия вы можете получить высокодетализированные автоматические прогнозы погоды по пунктам России, СНГ и мира в авиационном формате (включающие направление и скорость ветра, видимость, явления погоды, количество и форму облачности, нижнюю и верхнюю границу облачности).

Рекомендуем: Женский журнал http://clubkrasotki.ru

Погода в Рыбинске - сегодня

Время (UTC), дата Ветер
(°,м/с) 
Видим.   Явления Облачность Т
(°С)
Тd
(°С)
f(%) Тe
(°С)
Pmin
(гПа)
dP
(гПа)
Po
(мм)
O2
(г/м3)
Тmin Tmax R s Состояние
почвы
09 22.11.17 340 (С) 13000 м  {снег}  10/10 300 м 
[Sc]
-1.6 -3.6 86 -4  1008.6  0.3  746  303           
12 22.11.17 340 (С) 5{11}  9000 м  слаб. снег  10/10 2000 м 
[Ns]
-2.4 -4.1 88 -6  1008.8  0.3  747  304           
15 22.11.17 350 (С) 5{10}  4000 м  слаб. снег  10/10 300 м 
[Frnb|Ns]
-2.9 -4.6 88 -6  1009.7  0.8  747  305    -1.2  0.6     
18 22.11.17 340 (С) 5-10{10}  4000 м  слаб. снег  10/10 300 м 
[Frnb|Ns]
-4 -5 93 -8  1010.9  1.1  748  306           
21 22.11.17 340 (С) 6-10{12}  4000 м  слаб. снег  10/10 300 м 
[Frnb|Ns]
-4.3 -5.7 90 -9  1011.9  0.9  749  307           
00 23.11.17 340 (С) 6-11{12}  10 км  {снег}  10/10 300 м 
[Sc]
-4 -6.7 81 -8  1013.3  1.4  750  307           
03 23.11.17 340 (С) 5-10{12}  10 км    10/10 300 м 
[Sc]
-4.5 -6.6 85 -8  1015.4  2.1  751  309  -4.6    равномерный
сухой снег
100% 
06 23.11.17 350 (С) 5-10{12}  10 км    10/10 300 м 
[Sc]
-4.3 -6 88 -8  1017.1  1.8  753  309           
09 23.11.17 350 (С) 5{11}  11000 м    10/10 300 м 
[Sc]
-4.3 -6.3 86 -8  1018.5  1.3  754  309           
12 23.11.17 340 (С) 5-10{12}  11000 м    10/10 300 м 
[Sc]
-4.6 -6.9 84 -8  1019.8  1.3  755  310           
15 23.11.17 360 (С) 3{10}  10 км    10/10 300 м 
[Sc]
-4.8 -6.9 85 -7  1021.9  2.1  756  311    -4       
18 23.11.17 360 (С) 10 км    10/10 300 м 
[Sc]
-5.2 -7 87 -7  1023.1  1.1  757  312           
21 23.11.17 350 (С) 10 км    10/10 300 м 
[Sc]
-6.3 -7.8 89 -8  1024.1  0.9  758  313           
00 24.11.17 070 (В) 10 км    10/10 300 м 
[Sc]
-6.8 -7.9 92 -6  1024.9  0.8  758  314           
03 24.11.17 100 (В) 10 км    10/10 300 м 
[Sc]
-8.3 -9 95 -8  1025.4  0.4  759  316  -8.3      равномерный
сухой снег
100% 
06 24.11.17 120 (ЮВ) 8000 м  дымка  10/10 300 м 
[Sc]
-8.3 -9.1 94 -10  1025.9  0.4  759  316  -8.7         
09 24.11.17 160 (Ю) 11000 м    10/10 300 м 
[Sc]
-8.7 -9.5 94 -8  1025.9  759  317           
12 24.11.17 130 (ЮВ) 11000 м    10/10 300 м 
[Sc]
-8.5 -9.3 94 -10  1025.7  -0.2  759  317           
15 24.11.17 140 (ЮВ) 10 км    10/10 300 м 
[Sc]
-8.7 -9.6 93 -10  1025.4  -0.3  759  317    -8.3       
18 24.11.17 170 (Ю) 10 км    10/10 300 м 
[Sc]
-8.7 -9.6 93 -8  1024.9  -0.5  758  317           
21 24.11.17 180 (Ю) 10 км    10/10 300 м 
[Sc]
-8.9 -9.8 93 -11  1024.2  -0.7  758  317           
00 25.11.17 140 (ЮВ) 10 км    10/10 300 м 
[Sc]
-9 -9.9 93 -11  1023.5  -0.7  757  317           
03 25.11.17 150 (ЮВ) 10 км    10/10 300 м 
[Sc]
-9.2 -10.1 93 -11  1023  -0.4  757  317  -9.2      равномерный
сухой снег
100% 
06 25.11.17 170 (Ю) 10 км    10/10 300 м 
[Sc]
-9.5 -10.3 94 -11  1022.3  -0.7  756  317  -9.5         
09 25.11.17 140 (ЮВ) 10 км    10/10 300 м 
[Sc]
-9.1 -10 93 -11  1021.5  -0.8  756  316           
Время (UTC), дата Ветер
(°,м/с) 
Видим.   Явления Облачность Т
(°С)
Тd
(°С)
f(%) Тe
(°С)
Pmin
(гПа)
dP
(гПа)
Po
(мм)
O2
(г/м3)
Тmin Tmax R s Состояние
почвы

Для получения пояснительной информации подведите курсор к названию столбца.

ПОГОДА в Рыбинске - архив

Всё, что Вы хотите узнать о погоде в Рыбинске - удобно и подробно!

Выберите нужную дату (начиная с 1 января 2015* года) и нажмите кнопку "Найти".
Будут отображены архивные сводки погоды по пункту Рыбинск, начиная с указанной даты.


Отображать данные в формате CSV (для использования в таблицах Excel)


Внимание! Наш архив погоды предназначен исключительно для личного некоммерческого использования в познавательных целях. Если Вам необходимы официальные справки о состоянии погоды (для производственных, юридических, коммерческих и т.п. целей), обращайтесь в органы Росгидромета.

*Примечание: данная дата относится к архиву по метеостанциям СССР (Россия, СНГ, Балтия).
Архив по метеостанциям Зарубежной Европы и Азии (кроме Китая) хранится 10 дней, по другим регионам земного шара (Китай, Африка, Америка, Австралия, Океания) - 1 день.

Рыбинск - район местоположения метеостанции


Название, широта, долгота, высота метеостанции:
Рыбинск 58.1°ш. 38.7°д. 105 м над ур. моря [Российская Федерация]

Дополнительная информация

В oтличие oт бoльшинства пoгoдных сайтoв мы публикуем пoдрoбную метеoинфoрмацию в детальнoм прoфессиoнальнoм фoрмате.

Характеристики температуры и влажнoсти вoздуха измеряются на высoте 2 м в тени вдали oт зданий и деревьев.
Скoрoсть ветра измеряется на высoте 10 м (на урoвне рoста челoвека скoрoсть ветра ниже в 1.5-2 раза). Если метеoстанция нахoдится в гoрoде или в лесу, тo скoрoсть ветра занижена на 2-4 м/с пo сравнению с oткрытым местoм. Скoрoсть ветра над акватoриями крупных рек и oзёр, а также на вершинах хoлмoв на 2-5 м/с выше, чем в oбычных услoвиях.
Атмoсфернoе давление в разных тoчках местнoсти мoжет значительнo oтличаться oт давления на метеoстанции, в зависимoсти oт услoвий рельефа (при пoдъёме на 10 м давление пoнижается примернo на 1 мм рт.ст.).